Location: Castelbiague
(43.0361°N, 0.9246°E)
Time: 18:23:48
(UTC+00:00)

Cosmos 1953 - Visible Passes

Search period start: 21 October 2021 00:00
Search period end: 31 October 2021 00:00
Orbit: 539 x 555 km, 82.5° (Epoch: 21 October)

Date Brightness Start Highest point End Pass type
(mag) Time Alt. Az. Time Alt. Az. Time Alt. Az.
21 Oct 5.4 03:51:26 10° NNE 03:53:55 16° ENE 03:56:23 10° ESE visible
21 Oct 2.7 05:26:42 10° NNW 05:30:30 40° W 05:34:15 10° SSW visible
21 Oct 2.3 17:46:44 10° S 17:50:46 83° E 17:54:50 10° N visible
22 Oct 5.3 03:46:06 10° NNE 03:48:44 17° ENE 03:51:21 10° ESE visible
22 Oct 2.8 05:21:31 10° NNW 05:25:16 37° W 05:28:58 10° SSW visible
22 Oct 2.3 17:41:30 10° S 17:45:33 89° E 17:49:37 10° N visible
23 Oct 5.1 03:40:46 10° NNE 03:43:33 18° ENE 03:46:17 10° ESE visible
23 Oct 2.9 05:16:21 10° NNW 05:20:02 35° W 05:23:41 10° SSW visible
23 Oct 2.4 17:36:17 10° S 17:40:20 86° WNW 17:44:25 10° N visible
24 Oct 5.0 03:35:27 10° NNE 03:38:21 19° ENE 03:41:13 10° ESE visible
24 Oct 3.0 05:11:11 10° NNW 05:14:48 33° W 05:18:23 10° SSW visible
24 Oct 2.5 17:31:03 10° S 17:35:06 80° W 17:39:11 10° N visible
25 Oct 4.9 03:30:08 10° NNE 03:33:09 20° ENE 03:36:07 10° ESE visible
25 Oct 3.0 05:06:00 10° NNW 05:09:33 30° W 05:13:04 10° SSW visible
25 Oct 2.6 17:25:51 10° SSW 17:29:53 74° W 17:33:57 10° N visible
26 Oct 4.8 03:27:38 21° ENE 03:27:57 21° ENE 03:31:01 10° ESE visible
26 Oct 3.1 05:03:35 27° WNW 05:04:18 28° W 05:07:45 10° SSW visible
26 Oct 2.8 17:20:38 10° SSW 17:24:40 69° W 17:28:43 10° N visible
27 Oct 4.3 05:01:44 14° SW 05:01:44 14° SW 05:02:26 10° SSW visible
27 Oct 2.9 17:15:26 10° SSW 17:19:26 64° W 17:23:29 10° N visible
